Toms River, NJ

7:16 PM EDT on October 22, 2019 (GMT -0400)
Miller

Weather History for KMJX - September, 2019

Change the Weather History Date:

Tuesday, September 17, 2019

  Actual Average Record
Temperature  
Mean Temperature 64 °F -  
Max Temperature 77 °F 77 °F 96 °F (1991)
Min Temperature 51 °F 54 °F 39 °F (1986)
Degree Days  
Heating Degree Days 2    
Growing Degree Days 14 (Base 50)    
Moisture  
Dew Point 55 °F    
Average Humidity 62    
Maximum Humidity 100    
Minimum Humidity 40    
Precipitation  
Precipitation 0.00 in - - ()
Sea Level Pressure  
Sea Level Pressure 30.12 in    
Wind  
Wind Speed 5 mph (ENE)    
Max Wind Speed 15 mph    
Max Gust Speed -    
Visibility 10 miles    
Events      
Averages and records for this station are not official NWS values.
T = Trace of Precipitation, MM = Missing Value Source: NWS Daily Summary

Daily Weather History Graph

Daily Weather History Graph

Search for Another Location

Airport or City:

Astronomy

Sep. 17, 2019 Rise Set
Actual Time 6:39 AM EDT 7:02 PM EDT
Civil Twilight 6:12 AM EDT 7:29 PM EDT
Nautical Twilight 5:40 AM EDT 8:01 PM EDT
Astronomical Twilight 5:08 AM EDT 8:34 PM EDT
Moon 9:04 PM EDT (9/17) 9:41 AM EDT (9/17)
Length of Visible Light 13h 17m
Length of Day
12h 23m
Waning Gibbous, 89% of the Moon is Illuminated
Sep 17
Waning Gibbous
Sep 21
Last Quarter
Sep 28
New
Oct 5
First Quarter
Oct 13
Full

Hourly Weather History & Observations

Time (EDT) Temp. Dew Point Humidity Pressure Visibility Wind Dir Wind Speed Gust Speed Precip Events Conditions
12:56 AM - - N/A% 30.06 in 10.0 mi Calm Calm - N/A   Overcast
1:56 AM - - N/A% 30.06 in 10.0 mi Calm Calm - N/A   Overcast
2:56 AM 68.0 °F - N/A% 30.07 in 10.0 mi ENE 5.8 mph - N/A   Overcast
3:56 AM 66.9 °F 66.9 °F 100% 30.07 in 10.0 mi NE 5.8 mph - N/A   Overcast
4:56 AM 66.0 °F 60.1 °F 81% 30.08 in 10.0 mi ENE 6.9 mph - N/A   Mostly Cloudy
5:56 AM 62.1 °F 62.1 °F 100% 30.10 in 10.0 mi NE 4.6 mph - N/A   Clear
6:56 AM 62.1 °F - N/A% 30.12 in 10.0 mi NNE 5.8 mph - N/A   Mostly Cloudy
7:56 AM 64.9 °F 63.0 °F 93% 30.13 in 10.0 mi NE 9.2 mph - N/A   Scattered Clouds
8:56 AM 69.1 °F 55.0 °F 61% 30.15 in 10.0 mi ENE 12.7 mph - N/A   Clear
9:56 AM 71.1 °F 53.1 °F 53% 30.17 in 10.0 mi NE 15.0 mph - N/A   Clear
10:56 AM 72.0 °F 52.0 °F 49% 30.16 in 10.0 mi East 8.1 mph - N/A   Clear
11:56 AM 73.0 °F 51.1 °F 46% 30.17 in 10.0 mi NE 13.8 mph - N/A   Clear
12:56 PM 73.9 °F 50.0 °F 43% 30.15 in 10.0 mi East 9.2 mph - N/A   Clear
1:22 PM 73.4 °F 50.0 °F 44% 30.14 in 10.0 mi NE 4.6 mph - N/A   Partly Cloudy
1:56 PM 75.9 °F 51.1 °F 42% 30.13 in 10.0 mi Variable 6.9 mph - N/A   Clear
2:56 PM 75.9 °F 50.0 °F 40% 30.12 in 10.0 mi SE 6.9 mph - N/A   Clear
3:56 PM 73.9 °F 51.1 °F 45% 30.11 in 10.0 mi East 9.2 mph - N/A   Clear
4:56 PM 73.0 °F 50.0 °F 44% 30.10 in 10.0 mi ENE 5.8 mph - N/A   Clear
5:56 PM 71.1 °F 52.0 °F 51% 30.11 in 10.0 mi ESE 4.6 mph - N/A   Clear
6:56 PM 66.9 °F 57.0 °F 70% 30.12 in 10.0 mi Calm Calm - N/A   Clear
7:56 PM 60.1 °F 59.0 °F 96% 30.14 in 10.0 mi Calm Calm - N/A   Clear
8:56 PM 55.9 °F - N/A% 30.15 in 10.0 mi Calm Calm - N/A   Clear
9:56 PM 54.0 °F - N/A% 30.16 in 10.0 mi Calm Calm - N/A   Clear
10:56 PM 52.0 °F - N/A% 30.16 in 10.0 mi Calm Calm - N/A   Clear
11:56 PM 51.1 °F - N/A% 30.16 in 10.0 mi Calm Calm - N/A   Clear